Temp
72 72 72 73 73 72 72 73 73 74 73 74 76 76 77 77 76 75 77 82 80 80 81 82 81 81 81 80 80 80 80 80 80 79 80 80 79 79 79 79 79 79 79
72 72 71 72 73 72 72 72 72 73 73 74 75 76 76 77 77 76 75 77 81 80 80 81 81 81 81 81 80 80 80 80 80 79 79 79 79 78 79 79 79 79 79
71 72 72 73 73 72 72 71 71 72 71 73 74 75 75 76 77 77 76 75 78 81 80 81 80 81 81 81 81 80 80 79 79 79 78 78 78 78 78 78 79 79 78
73 71 72 73 75 74 73 72 71 71 71 71 72 72 73 75 76 76 76 78 75 78 79 81 80 80 80 81 81 81 80 79 78 78 78 78 78 78 77 78 78 78 78
76 74 73 75 74 73 73 73 71 71 70 70 72 71 72 72 74 80 76 76 77 76 76 79 80 80 81 82 82 81 80 79 78 78 78 78 78 78 77 77 77 78 78
75 75 75 74 74 74 73 72 71 71 71 71 76 76 72 72 72 72 75 78 75 77 76 76 76 79 79 81 81 81 81 80 79 78 78 78 78 78 77 77 77 77 77
75 74 76 74 72 73 73 71 71 71 71 69 68 68 69 71 71 71 73 75 75 77 77 77 75 77 78 79 79 80 80 81 80 80 79 78 78 78 77 77 77 76 76
75 75 75 74 73 73 71 70 70 68 69 68 66 64 63 67 69 72 71 73 73 75 76 77 76 76 76 76 78 79 80 80 81 80 80 79 78 77 77 77 76 76 76
75 75 75 75 74 73 73 72 71 70 69 67 69 67 60 61 63 68 71 71 73 71 73 75 76 77 76 76 78 78 79 78 80 80 81 80 78 77 77 77 77 76 76
76 75 76 75 75 74 75 74 74 73 70 68 66 71 67 66 62 63 67 68 69 71 71 71 76 76 76 76 78 79 78 76 78 79 80 81 80 78 77 77 78 77 76
76 76 75 75 75 75 75 75 74 72 73 74 67 65 66 65 65 63 63 66 68 69 70 72 73 73 73 75 74 75 77 77 77 77 78 79 79 80 80 79 79 80 80
75 75 76 75 75 76 74 74 73 73 73 73 74 66 70 65 67 63 62 64 66 71 70 70 70 69 70 71 76 78 77 77 75 75 75 76 77 78 78 80 81 81 81
70 75 73 75 76 76 76 75 74 74 73 72 70 71 73 75 67 65 65 67 64 65 68 70 72 71 73 71 73 77 78 76 74 73 73 73 74 75 76 76 78 80 80
71 73 74 74 76 76 77 76 76 75 75 73 72 70 75 74 68 67 68 65 64 63 65 68 71 72 71 71 73 75 74 75 73 71 70 71 71 71 72 73 74 75 75
72 72 72 73 74 74 74 73 73 75 75 75 73 72 71 75 71 69 69 68 67 66 64 67 67 73 73 72 73 72 71 73 73 70 69 70 70 69 70 70 70 70 70
72 72 72 72 72 73 74 73 71 71 71 72 74 71 70 71 70 69 69 69 69 70 68 68 68 69 71 73 74 73 72 72 72 71 70 68 69 69 69 69 69 68 68
71 71 72 71 71 71 71 71 73 72 70 71 72 71 70 70 70 70 70 69 69 68 68 74 69 69 69 70 73 72 73 71 71 71 70 69 68 68 68 67 67 67 68
68 71 71 71 71 69 67 68 69 64 64 64 64 67 69 71 70 70 70 69 69 69 69 69 70 67 68 69 70 71 72 73 71 72 70 69 68 67 66 65 65 65 64
67 69 71 70 68 67 66 67 66 64 65 65 66 65 67 68 69 69 70 69 69 70 69 70 70 67 68 68 68 69 69 70 71 73 70 68 67 67 65 64 63 62 60
66 67 68 69 69 67 67 66 67 65 66 67 67 68 67 66 69 70 70 70 71 69 68 68 69 69 67 67 68 67 67 67 68 71 72 70 69 68 66 65 64 63 60
65 66 67 68 69 67 68 66 66 66 65 66 68 69 70 69 69 70 71 70 71 69 69 68 68 67 66 65 67 67 66 67 67 69 68 69 68 68 68 66 67 66 62
64 64 65 68 67 69 66 64 67 65 66 66 65 67 69 69 67 66 67 68 70 69 70 69 70 69 68 67 67 66 66 64 64 67 67 67 68 67 71 67 68 65 62
63 63 64 68 68 69 63 63 65 66 65 64 63 64 65 70 69 70 65 65 65 66 68 71 69 69 68 69 68 65 65 64 65 66 67 65 68 68 71 70 65 64 62
62 63 65 68 68 69 62 60 63 66 64 64 64 64 65 67 67 67 66 66 67 69 68 69 71 71 71 70 70 68 66 66 65 66 67 65 67 67 70 70 66 63 61
61 64 64 64 65 68 60 59 60 65 64 65 65 65 66 65 64 61 65 64 64 66 64 63 64 65 63 63 66 67 65 64 63 64 67 67 66 67 67 69 70 64 60
62 63 64 64 62 64 56 56 58 65 64 65 66 65 62 64 59 58 63 64 63 65 67 68 66 63 62 65 63 70 67 64 63 63 66 66 65 65 62 64 66 66 64
MSLP
1018.24 1018.45 1018.52 1018.74 1018.82 1018.86 1018.79 1018.80 1018.94 1018.89 1019.13 1019.26 1019.23 1019.19 1019.04 1018.76 1018.76 1018.88 1019.02 1018.92 1019.20 1019.56 1019.86 1020.03 1020.21 1020.30 1020.47 1020.60 1020.61 1020.70 1020.86 1020.97 1021.12 1021.07 1021.09 1021.25 1021.39 1021.45 1021.48 1021.54 1021.62 1021.67 1021.75
1018.15 1018.34 1018.52 1018.57 1018.70 1018.76 1018.74 1018.88 1018.78 1018.80 1019.04 1019.14 1019.19 1019.01 1018.95 1018.81 1018.71 1018.81 1018.96 1018.94 1019.06 1019.50 1019.75 1019.83 1019.91 1020.00 1020.10 1020.18 1020.35 1020.46 1020.53 1020.75 1020.94 1020.93 1020.99 1021.10 1021.16 1021.27 1021.36 1021.35 1021.41 1021.45 1021.50
1018.13 1018.23 1018.27 1018.14 1018.32 1018.49 1018.65 1018.90 1018.81 1018.74 1018.93 1018.99 1019.07 1018.92 1018.86 1018.72 1018.71 1018.68 1018.86 1018.92 1018.98 1019.16 1019.40 1019.50 1019.52 1019.63 1019.72 1019.78 1019.89 1020.03 1020.21 1020.43 1020.61 1020.65 1020.75 1020.94 1020.99 1021.09 1021.19 1021.19 1021.20 1021.26 1021.27
1017.72 1018.03 1018.11 1018.04 1017.72 1018.07 1018.22 1018.67 1018.75 1018.75 1018.89 1018.99 1018.89 1018.94 1018.68 1018.58 1018.43 1018.41 1018.52 1018.65 1018.85 1018.90 1018.98 1019.01 1019.10 1019.26 1019.40 1019.44 1019.51 1019.71 1019.92 1020.17 1020.35 1020.39 1020.43 1020.57 1020.59 1020.69 1020.80 1020.88 1020.95 1020.98 1020.93
1017.14 1017.47 1017.63 1017.62 1017.65 1017.99 1018.18 1018.49 1018.55 1018.67 1018.76 1018.78 1018.74 1018.78 1018.67 1018.56 1018.43 1018.10 1018.25 1018.39 1018.45 1018.63 1018.69 1018.66 1018.75 1018.72 1018.86 1019.07 1019.21 1019.37 1019.45 1019.45 1019.63 1019.75 1019.77 1019.86 1019.97 1020.13 1020.26 1020.38 1020.47 1020.48 1020.49
1016.58 1016.90 1017.09 1017.24 1017.40 1017.82 1018.03 1018.23 1018.40 1018.53 1018.70 1018.68 1018.71 1018.59 1018.32 1018.26 1018.35 1018.27 1018.05 1017.94 1018.06 1018.24 1018.25 1018.37 1018.48 1018.52 1018.34 1018.44 1018.59 1018.75 1018.75 1018.84 1018.89 1019.06 1019.19 1019.27 1019.46 1019.57 1019.67 1019.81 1019.95 1019.97 1020.01
1015.96 1016.31 1016.43 1016.70 1017.00 1017.42 1017.52 1017.75 1018.05 1018.32 1018.44 1018.57 1018.97 1018.76 1018.49 1018.17 1018.02 1018.01 1017.77 1017.66 1017.77 1017.72 1017.79 1017.82 1017.96 1018.08 1018.07 1017.96 1018.02 1018.19 1018.13 1018.04 1018.34 1018.41 1018.57 1018.76 1018.80 1018.89 1019.03 1019.09 1019.17 1019.32 1019.37
1015.20 1015.51 1015.80 1016.17 1016.44 1016.86 1017.11 1017.28 1017.66 1018.06 1018.12 1018.28 1018.77 1019.11 1018.86 1018.19 1017.66 1017.29 1017.38 1017.40 1017.27 1017.24 1017.32 1017.32 1017.48 1017.52 1017.56 1017.60 1017.45 1017.49 1017.56 1017.57 1017.58 1017.65 1017.77 1017.94 1018.00 1018.13 1018.28 1018.38 1018.46 1018.55 1018.67
1014.26 1014.59 1014.83 1015.19 1015.59 1016.06 1016.39 1016.56 1016.89 1017.18 1017.58 1017.76 1017.88 1018.20 1018.55 1018.28 1017.87 1016.98 1016.72 1016.56 1016.62 1016.72 1016.67 1016.66 1016.71 1016.82 1016.97 1017.02 1016.93 1016.83 1016.85 1016.87 1016.88 1016.83 1016.97 1017.05 1017.26 1017.34 1017.43 1017.54 1017.60 1017.70 1017.87
1013.46 1013.64 1013.82 1014.13 1014.72 1015.11 1015.45 1015.75 1016.02 1016.33 1016.82 1017.14 1017.64 1017.47 1017.35 1017.40 1017.74 1017.54 1016.88 1016.57 1016.39 1016.39 1016.27 1016.15 1016.06 1016.15 1016.20 1016.33 1016.28 1016.31 1016.20 1016.12 1016.15 1016.26 1016.24 1016.27 1016.40 1016.59 1016.72 1016.84 1016.82 1017.00 1017.20
1012.77 1012.88 1013.02 1013.28 1013.83 1014.24 1014.49 1014.78 1015.29 1015.70 1015.84 1016.08 1016.50 1016.77 1017.08 1017.32 1017.38 1017.55 1017.53 1016.96 1016.67 1016.24 1016.01 1015.72 1015.51 1015.53 1015.65 1015.74 1015.75 1015.70 1015.54 1015.54 1015.50 1015.53 1015.76 1015.63 1015.65 1015.84 1015.89 1016.04 1016.04 1016.13 1016.22
1012.22 1012.13 1012.14 1012.57 1012.91 1013.17 1013.42 1013.73 1014.07 1014.50 1014.80 1014.98 1015.16 1015.74 1015.98 1016.29 1016.82 1017.29 1017.45 1017.01 1016.75 1015.95 1015.63 1015.31 1015.29 1015.04 1014.96 1015.16 1015.14 1014.96 1014.89 1014.91 1014.98 1015.09 1015.12 1015.23 1015.29 1015.39 1015.36 1015.38 1015.33 1015.27 1015.34
1011.81 1011.37 1011.42 1011.53 1011.89 1012.08 1012.35 1012.64 1012.87 1013.19 1013.54 1013.94 1014.22 1014.36 1014.73 1014.80 1015.19 1015.72 1016.57 1016.51 1016.56 1015.97 1015.53 1014.91 1014.67 1014.46 1014.42 1014.48 1014.45 1014.33 1014.25 1014.16 1014.32 1014.51 1014.64 1014.75 1014.84 1014.81 1014.95 1014.90 1014.71 1014.55 1014.65
1010.77 1010.57 1010.61 1010.52 1010.68 1010.86 1011.21 1011.40 1011.59 1011.72 1012.09 1012.33 1012.84 1013.38 1013.56 1013.95 1014.43 1014.76 1015.10 1015.90 1016.27 1016.03 1015.55 1014.83 1014.21 1014.00 1013.90 1013.75 1013.65 1013.78 1013.85 1013.68 1013.74 1014.07 1014.37 1014.30 1014.39 1014.42 1014.40 1014.45 1014.44 1014.49 1014.61
1009.93 1009.87 1009.91 1009.92 1009.85 1009.89 1010.09 1010.24 1010.50 1010.64 1011.03 1011.20 1011.48 1012.05 1012.57 1012.74 1013.30 1013.72 1014.27 1014.66 1015.27 1015.51 1015.03 1014.36 1014.30 1013.37 1013.24 1013.20 1013.23 1013.44 1013.44 1013.24 1013.28 1013.60 1013.52 1013.78 1013.63 1013.80 1013.97 1014.04 1014.13 1014.20 1014.27
1009.45 1009.15 1008.99 1009.00 1009.03 1008.96 1008.88 1009.31 1010.04 1009.99 1010.92 1010.89 1010.76 1011.19 1011.71 1012.02 1012.31 1012.68 1013.10 1013.70 1014.18 1014.49 1014.17 1013.76 1013.66 1013.37 1013.09 1012.90 1012.75 1012.85 1012.86 1012.74 1012.73 1012.76 1012.93 1012.94 1013.20 1013.57 1013.65 1013.74 1013.93 1013.94 1013.91
1008.88 1008.49 1008.19 1008.00 1008.00 1008.08 1008.03 1008.41 1008.68 1009.12 1007.21 1009.97 1009.58 1009.93 1010.74 1011.26 1011.65 1011.96 1012.26 1012.68 1013.36 1013.67 1013.62 1012.83 1012.89 1012.84 1012.86 1012.76 1012.43 1012.27 1012.40 1012.41 1012.21 1012.16 1012.23 1012.48 1012.76 1013.00 1013.12 1013.23 1013.37 1013.47 1013.59
1008.26 1007.73 1007.32 1007.04 1006.93 1007.07 1007.04 1007.22 1007.95 1008.74 1009.11 1009.41 1008.48 1010.50 1009.39 1010.35 1010.90 1011.09 1011.31 1011.61 1012.02 1012.57 1012.86 1012.53 1012.31 1012.53 1012.59 1012.35 1012.28 1012.09 1012.01 1011.83 1011.79 1011.55 1011.61 1011.88 1012.23 1012.43 1012.47 1012.72 1012.86 1012.82 1012.99
1007.50 1006.97 1006.56 1006.18 1006.06 1006.18 1006.25 1006.20 1006.40 1007.24 1007.48 1007.28 1008.14 1009.14 1008.93 1010.31 1010.41 1010.40 1010.37 1010.56 1010.87 1011.59 1011.90 1012.00 1011.69 1011.67 1011.85 1011.98 1012.04 1012.01 1011.71 1011.48 1011.23 1011.17 1011.22 1011.54 1011.69 1011.85 1011.93 1012.18 1012.27 1012.42 1012.48
1006.79 1006.23 1005.66 1005.18 1005.01 1005.11 1005.20 1005.37 1005.72 1006.24 1006.48 1006.59 1006.31 1005.93 1005.92 1008.13 1008.77 1008.82 1009.28 1009.57 1009.91 1010.61 1011.08 1011.34 1011.36 1011.26 1011.27 1011.36 1011.57 1011.73 1011.67 1011.27 1010.99 1010.58 1010.59 1010.87 1011.11 1011.32 1011.46 1011.66 1011.73 1011.94 1012.12
1006.00 1005.29 1004.88 1004.35 1004.03 1004.02 1004.06 1004.36 1004.76 1005.21 1005.62 1006.13 1006.07 1006.04 1004.47 1005.17 1006.57 1006.53 1007.93 1008.56 1009.12 1009.69 1010.21 1010.37 1010.71 1010.83 1010.92 1010.98 1011.01 1010.90 1011.20 1010.97 1010.60 1010.33 1010.32 1010.53 1010.68 1010.79 1010.94 1011.14 1011.38 1011.38 1011.64
1004.93 1004.40 1003.90 1003.39 1003.02 1002.72 1002.86 1003.19 1003.61 1004.15 1004.34 1004.58 1004.43 1004.05 1004.36 1005.71 1005.93 1006.83 1007.03 1007.45 1007.99 1008.58 1009.09 1009.26 1009.69 1009.84 1009.97 1009.91 1009.93 1010.15 1010.38 1010.83 1010.67 1009.67 1010.06 1010.06 1010.06 1010.22 1010.27 1010.46 1010.52 1010.67 1010.91
1003.64 1003.40 1002.99 1002.35 1001.84 1001.81 1002.18 1002.41 1002.62 1003.21 1003.85 1003.97 1004.08 1004.40 1004.90 1005.13 1005.43 1005.86 1005.91 1006.71 1007.52 1007.66 1007.93 1008.18 1008.48 1008.73 1008.92 1008.82 1009.09 1009.50 1009.68 1009.93 1009.85 1009.42 1009.81 1009.99 1009.89 1009.87 1009.46 1009.69 1009.81 1010.04 1010.14
1003.03 1002.55 1002.02 1001.38 1001.01 1001.05 1001.39 1001.88 1002.34 1002.87 1003.34 1003.90 1004.07 1004.54 1004.73 1004.86 1005.19 1005.64 1005.89 1006.58 1006.89 1007.09 1007.37 1007.56 1007.43 1007.51 1007.65 1007.73 1008.28 1008.27 1008.68 1009.19 1009.33 1009.25 1009.39 1009.88 1009.68 1009.47 1009.21 1009.13 1009.19 1009.40 1009.46
1002.30 1001.79 1001.28 1000.85 1000.37 1000.35 1000.57 1001.10 1002.00 1002.39 1002.74 1003.17 1003.36 1003.86 1003.97 1004.59 1004.71 1005.13 1005.78 1006.05 1006.44 1006.63 1006.57 1006.55 1006.91 1006.98 1007.12 1007.21 1007.42 1008.00 1008.38 1008.81 1009.08 1009.02 1009.07 1009.35 1009.28 1009.26 1009.20 1008.94 1008.60 1008.73 1009.01
1001.45 1001.42 1000.99 1000.55 1000.28 1000.16 1000.39 1000.63 1001.46 1001.88 1002.21 1002.46 1002.78 1003.00 1003.32 1003.65 1004.21 1004.45 1004.85 1005.42 1005.77 1005.46 1005.80 1005.90 1006.29 1006.47 1006.56 1006.74 1006.89 1006.79 1007.28 1007.88 1008.54 1008.75 1008.49 1008.92 1008.95 1009.26 1009.42 1008.95 1008.76 1008.59 1008.69
Wind_Speed
4 3 4 3 3 3 3 3 3 3 3 4 4 4 5 6 4 4 4 18 18 17 17 17 16 16 16 14 15 15 15 15 14 14 14 13 12 12 13 13 12 11 11
3 3 3 3 4 4 3 4 4 3 4 4 4 5 5 5 4 4 3 5 16 14 16 17 17 17 17 16 16 16 16 16 14 14 14 13 13 12 13 13 13 12 11
5 5 4 5 5 4 5 4 4 3 3 3 5 4 4 6 5 6 5 4 6 14 16 17 18 17 17 18 17 17 16 15 15 15 15 14 14 13 12 13 14 13 12
7 5 4 5 6 5 4 5 4 3 4 4 3 4 4 4 6 5 4 5 4 5 10 16 17 18 17 19 19 18 16 15 15 15 15 15 16 15 14 14 14 14 14
10 8 6 7 4 4 5 5 4 3 3 4 4 4 4 4 5 4 5 5 7 6 4 10 18 18 19 21 19 18 18 18 18 18 18 17 17 16 16 15 16 16 16
10 9 7 7 5 6 5 4 5 4 3 4 5 5 4 4 4 5 5 5 5 8 7 7 6 10 19 20 19 19 21 20 19 19 19 18 18 17 17 16 16 17 17
10 10 8 7 6 7 8 6 4 6 5 1 0 3 4 6 6 5 5 5 5 7 8 8 6 6 7 19 19 20 21 21 18 19 19 18 18 18 18 18 17 17 17
11 10 11 9 9 7 7 6 6 3 4 5 4 1 3 4 3 6 5 7 8 6 6 8 7 9 8 6 10 20 22 21 20 19 19 18 19 19 20 19 19 18 18
11 12 12 10 10 9 9 10 8 9 6 3 7 5 2 5 2 2 5 5 6 5 6 7 8 9 9 8 10 13 19 20 22 21 20 19 19 19 20 20 20 18 18
11 12 14 12 12 9 11 9 9 10 6 7 2 7 3 4 4 3 2 4 4 6 6 5 7 7 8 7 12 13 15 16 20 21 21 19 18 19 19 19 20 18 18
11 12 13 13 13 10 11 12 10 11 9 9 6 3 4 3 2 3 4 4 3 4 5 6 6 5 6 6 6 9 17 18 18 19 18 19 16 18 19 19 20 19 19
7 11 12 12 13 13 13 11 12 12 12 10 9 6 7 5 7 4 4 5 5 6 3 4 5 6 6 5 9 14 15 16 14 14 14 13 15 16 18 18 19 18 19
6 10 11 13 11 13 14 13 13 14 13 12 12 10 10 10 5 4 4 5 5 3 4 4 5 5 5 6 7 13 14 14 12 11 11 11 13 14 15 14 13 12 13
9 11 9 12 15 15 14 14 13 13 14 14 15 12 10 9 5 5 6 5 3 3 2 6 3 5 5 5 8 11 9 13 11 9 11 12 12 11 10 10 7 8 9
8 10 10 12 12 13 15 15 12 15 14 14 15 14 12 10 8 6 5 6 7 9 6 3 4 4 5 4 5 5 6 10 12 11 10 11 7 7 8 8 7 7 8
10 11 10 11 12 13 15 14 11 12 11 12 11 13 12 10 8 8 8 7 7 10 12 4 5 4 3 3 5 5 6 9 10 11 12 9 7 9 8 7 9 8 8
11 12 12 12 11 11 10 9 14 16 15 12 14 12 14 13 9 8 7 8 8 8 11 10 4 5 4 6 5 3 4 5 5 10 11 9 9 10 11 10 8 8 8
11 13 13 12 11 8 7 7 8 12 8 5 12 18 4 7 12 10 9 11 9 10 9 13 6 4 7 5 6 4 4 4 5 7 10 10 11 11 10 9 10 8 7
11 11 12 12 8 10 9 9 10 12 12 13 19 13 12 7 10 8 9 9 8 7 9 8 8 4 5 3 4 4 5 5 4 8 9 9 10 10 9 9 8 8 7
13 12 12 13 10 12 12 12 11 11 12 16 19 24 24 17 16 12 9 11 9 8 7 8 8 6 4 3 3 4 5 3 4 4 7 7 7 10 9 8 8 8 9
14 13 13 13 12 12 12 13 12 12 13 14 17 15 14 12 14 13 8 10 10 9 8 8 8 5 4 3 5 3 5 3 4 4 4 4 4 4 4 6 8 10 11
16 14 15 16 14 11 17 19 16 12 12 13 10 8 10 11 9 11 14 14 12 12 12 8 9 9 10 5 4 5 4 3 3 3 4 3 4 4 5 4 11 12 12
14 12 14 15 15 13 18 21 23 12 10 8 6 4 4 7 9 10 9 12 14 15 15 11 10 11 8 8 5 5 5 4 5 3 3 2 3 4 4 5 11 12 12
12 11 11 12 12 11 15 19 22 13 9 9 8 10 9 10 8 7 5 7 11 12 14 10 12 11 11 8 9 6 7 4 1 2 3 3 3 3 2 4 9 11 11
10 9 8 8 11 9 15 16 15 12 11 10 8 10 11 10 10 12 9 9 9 9 8 13 14 12 10 12 10 5 4 3 3 3 4 3 3 2 2 3 4 8 7
6 6 5 4 7 4 5 11 13 7 10 8 9 10 13 11 12 12 8 10 10 14 11 9 6 7 8 10 13 10 7 4 3 1 4 5 2 3 3 2 1 1 1
Wind_Direction
197 210 211 213 222 218 223 231 229 184 239 261 260 255 275 290 205 181 207 202 197 205 212 211 211 214 218 221 223 224 223 225 227 233 240 243 248 249 252 243 241 244 247
204 200 203 206 225 208 220 227 218 204 221 226 257 260 269 283 226 200 211 218 206 209 221 216 218 219 220 222 225 228 237 230 233 236 243 243 245 246 247 256 239 245 246
197 210 208 195 212 211 212 241 238 226 238 243 252 253 239 249 230 214 213 212 214 215 227 228 218 221 223 224 226 228 232 233 234 238 243 246 246 250 250 250 249 244 248
195 201 210 235 212 200 196 219 218 224 240 236 248 252 224 233 256 216 207 202 202 211 231 237 228 222 226 229 231 233 233 235 238 242 245 245 247 244 246 248 248 249 251
206 198 212 227 205 210 210 216 219 203 223 244 250 250 241 216 247 250 218 209 207 211 220 240 239 230 227 235 236 237 234 231 232 235 239 241 242 245 245 243 246 246 248
208 203 210 213 198 218 227 213 210 202 209 228 241 257 261 239 221 240 235 225 210 214 215 223 235 242 235 232 237 236 238 236 234 234 236 240 242 243 243 245 245 245 246
207 205 218 216 191 205 220 203 196 218 232 204 6 303 285 257 257 218 226 237 232 225 223 228 222 224 238 237 237 241 243 240 242 237 236 237 240 241 243 241 242 244 246
209 204 207 212 207 209 216 202 188 197 216 175 181 103 306 307 258 236 203 209 219 221 222 224 220 222 229 229 231 235 242 250 242 240 240 236 234 237 240 240 242 242 241
205 207 209 210 206 206 215 213 206 205 228 214 195 161 181 232 334 285 246 232 229 206 219 219 214 221 225 232 234 236 236 238 244 245 240 240 237 237 237 243 243 240 239
212 206 211 209 212 210 213 213 213 215 189 218 212 231 234 150 193 316 331 292 255 252 240 236 230 224 223 226 236 238 240 232 237 244 251 243 240 241 238 242 245 242 244
218 215 210 211 214 213 215 213 211 209 206 219 204 161 224 237 246 155 253 296 319 254 248 237 226 212 224 225 229 233 236 239 237 239 244 252 253 251 245 242 248 250 249
220 221 213 214 215 216 214 209 209 211 215 215 215 191 203 179 213 191 225 248 251 278 265 247 225 223 227 222 235 236 238 243 241 233 235 242 255 261 271 277 265 259 257
237 230 219 213 219 218 214 213 210 214 206 210 206 209 223 225 179 182 203 244 240 267 278 248 228 223 230 221 229 235 241 236 227 224 231 238 247 258 266 270 273 263 261
237 243 229 233 218 222 220 218 219 217 213 212 212 213 215 218 184 181 196 160 269 266 283 246 246 231 231 219 226 241 249 250 223 220 241 238 246 236 238 252 269 272 275
239 238 230 238 242 228 224 222 219 223 218 211 211 208 210 218 213 199 202 195 223 253 258 253 248 244 253 253 238 222 234 241 234 231 236 238 239 246 246 248 261 255 260
255 246 233 232 236 241 237 228 225 235 233 233 216 208 209 217 209 201 200 212 210 236 261 204 233 239 252 253 246 236 242 243 229 232 228 224 221 236 248 245 237 246 260
260 252 242 232 227 231 241 253 235 219 225 245 227 204 212 216 211 211 206 207 218 221 238 258 215 228 240 247 269 263 257 253 241 224 221 209 228 237 236 228 226 235 255
275 260 250 233 223 207 200 214 198 136 137 8 8 295 249 227 223 212 201 205 205 210 221 247 235 222 226 218 241 247 255 244 244 230 218 216 221 231 237 229 224 229 243
272 268 252 239 215 192 197 190 171 165 164 164 183 229 269 257 236 221 208 209 204 215 218 235 247 195 220 215 246 254 245 254 229 235 226 225 231 235 230 227 233 240 238
282 266 253 242 216 197 201 196 194 192 195 186 192 190 186 205 215 210 212 214 208 209 211 224 242 238 202 199 197 223 261 244 252 212 220 209 214 227 230 226 230 235 241
277 272 266 252 229 203 207 200 204 204 206 208 207 224 222 201 206 185 199 212 209 214 212 214 232 227 218 191 207 199 219 232 252 216 210 214 210 204 243 236 246 225 229
272 266 266 258 237 210 205 198 194 201 212 230 239 249 240 212 213 227 214 224 208 208 215 211 227 229 232 216 185 194 189 201 268 207 188 244 167 211 226 209 225 219 217
266 264 265 253 230 216 194 205 208 209 208 219 209 203 211 235 217 213 202 223 232 222 220 210 219 214 225 208 190 188 192 188 210 223 144 249 182 229 215 225 223 228 225
284 260 262 252 224 217 198 199 209 210 202 197 191 192 196 203 198 207 205 226 234 229 228 221 219 223 219 206 199 187 190 199 203 187 147 215 188 244 242 237 227 232 229
281 275 261 248 224 212 207 196 187 209 214 210 193 198 188 196 205 197 192 216 230 242 223 223 232 233 233 222 192 143 173 133 230 231 188 187 192 230 222 255 247 242 258
271 273 294 312 255 209 197 193 182 201 217 219 212 211 196 188 189 201 212 216 226 239 229 227 220 226 219 225 207 193 158 166 165 197 211 179 162 160 303 281 283 190 193